GPS BIIR-5 (PRN 28)

Last updated on Aug. 5, 2020, 5:34 a.m. UTC

1 26407U 00040A   20217.38927382 -.00000041  00000-0  00000-0 0  9993
2 26407  55.9585 300.2822 0186417 279.5232  84.5704  2.00564902146975
UTC
Height (km)
Latitude
Longitude
Inclination
Orbital Period
UTC large
Height (km)
Speed (km/s)
/
Latitude / Longitude
Inclination (degrees)
Orbital Period (minutes)
Azimuth
Elevation
Range (km)
Doppler Factor
iOS Compass Heading
iOS Angle

Next 30 passes for location: Hong Kong

Rise time Rise Azimuth (degrees) Set time Set Azimuth (degrees) Duration Max altitude (degrees)

No matching passes for this satellites